DECAYED

STARLINK-2403, 47820 (Decayed)

Orbit data source: Space-Track

STARLINK-2403, 47820 was a payload satellite owned by SpaceX/Seattle (US) in LEO that was launched on Thu, 11 Mar 2021 UTC via an FALCON 9 launch vehicle from the Air Force Eastern Test Range (AFETR). Payload-class satellites include a variety of spacecraft equipped with specific instruments for various scientific and technological missions. These include communications satellites like Starlink; space stations such as the ISS; scientific satellites like the Hubble; Earth observation satellites from companies like Planet Labs, Umbra, and HawkEye 360; GPS; miniature CubeSats for education and research; and military/defense satellites.

Not visible in the next 10 days
Identifier
47820, 2021-018AK
Orbit
Decayed
Country
Flag of USUS
Related business
Manufacturer
SpaceX/Seattle
Mission
Decayed Commercial Communications
Bus & Motor
STARLINK, Unknown motor
Mass
260 kg wet, ~248 kg dry
Launch date (UTC)
2021-03-11 (5 years ago)
Launch vehicle
FALCON 9
Launch site
Air Force Eastern Test Range (AFETR)
Object type
Payload
Rocket body
Debris
Shape & HBR
Box + 1 Pan, 10.1 m
Radar Cross Section
13.562 m², Large (>1 m²)

Expand to show TLE details & history
Last TLE update: 1 year ago

TLE from 1 year ago
0 STARLINK-2403
1 47820U 21018AK  25105.87444154  .06331456  12124-4  13017-2 0  9999
2 47820  53.0448 275.3166 0006643 291.6039 234.2287 16.30343710226956
Epoch: 2025-04-15T20:59Z
TLE epoch observation values (Epoch: 2025-04-15T20:59:11.749Z)
Latitude
11.31812°
Longitude
-72.36149°
Altitude
194.326 km
Speed
7.791 km/s
True Right ascension
05h 46m 49s
True Declination
11° 14' 47"
Sunlit
Object was in daylight at epoch
Visualization orbit readout
Latitude
Unknown
Longitude
Unknown
Altitude
Unknown
Speed
Unknown
Apparent Right ascension
Unknown
Apparent Declination
Unknown
Sunlit
N/A
Visualization observer readout
Local Sidereal Time
02:13:24
Azimuth
Unknown
Elevation
Unknown
Doppler factor
Unknown
Orbital elements
Apogee altitude
196.267 km
Perigee altitude
187.538 km
Semi-major axis
6,570.04 km
Eccentricity
0.00066
Inclination
53.0448°
RAAN
275.3166°
Arg. of periapsis
291.6039°
True anomaly
234.16697°
Mean anomaly
234.2287°
Eccentric anomaly
234.19783°
Mean motion
4.0756 °/min
Orbital period
88.33 mins
BSTAR
0.0013017
Loading maneuver chart data...
Computing Atmospheric mass density...

Documentation

Showing up to 5 results
|